Temperature
19 19 19 19 19 19 19 18 18 18 18 18 18 18 18 18 18 18 18 18 18 18 18 18 17 17 17 17 17 17 17 17 17 17 17 17 16 16 16 16 16 16 16
19 19 19 19 19 19 19 19 19 18 18 18 18 18 18 18 18 18 18 18 18 18 18 18 17 17 17 17 17 17 17 17 17 17 17 16 16 16 16 16 16 16 16
19 19 19 19 19 19 19 19 19 18 18 18 18 18 18 18 18 18 18 18 18 18 18 18 17 17 17 17 17 17 17 17 17 17 16 16 16 16 16 16 16 16 16
19 19 19 19 19 19 19 19 19 18 18 18 18 18 18 18 18 18 18 18 18 18 18 18 17 17 17 17 17 17 17 17 17 17 16 16 16 16 16 16 16 16 16
19 19 19 19 19 19 19 19 18 19 19 18 18 18 18 18 18 18 18 18 18 17 17 17 17 17 17 17 17 17 17 17 17 16 16 16 16 16 16 16 16 16 16
19 19 19 19 19 19 19 19 19 19 19 18 18 18 18 18 18 18 18 18 18 18 17 17 17 17 17 17 17 17 17 17 17 16 16 16 16 16 16 16 16 16 16
19 19 19 19 19 19 19 19 19 19 19 19 18 18 18 18 18 18 18 18 18 18 17 17 17 17 17 17 17 17 17 17 17 16 16 16 16 16 16 16 16 16 16
19 19 19 19 19 19 19 19 19 19 19 19 19 18 18 18 19 18 18 18 18 18 17 17 17 17 17 17 17 17 17 17 17 16 16 16 16 16 16 16 16 16 16
19 19 19 19 19 19 19 19 19 19 19 19 19 19 19 19 18 18 18 18 18 18 17 17 17 17 17 17 16 16 16 17 16 16 16 16 16 16 16 16 16 16 16
19 19 19 19 19 19 19 19 19 19 19 19 19 19 19 19 19 18 18 18 18 18 18 17 17 17 17 17 16 16 16 16 16 16 16 16 16 16 16 16 16 16 16
19 19 19 19 19 19 19 19 19 18 19 19 19 19 19 19 19 19 18 18 18 18 18 18 17 17 17 17 17 17 16 16 16 16 16 16 16 16 16 16 16 15 15
19 19 19 19 19 19 19 18 18 18 18 19 19 18 19 19 19 19 18 18 18 18 18 18 17 17 17 17 17 17 17 17 16 16 16 16 16 16 16 16 16 15 15
19 19 19 19 19 19 18 18 18 18 18 18 18 18 18 18 18 19 18 18 18 18 18 18 17 17 17 17 17 17 17 17 16 16 16 16 16 16 16 16 16 15 15
19 19 19 19 18 18 18 18 18 18 18 18 18 18 18 18 18 18 18 18 18 18 18 18 17 17 17 17 17 17 16 17 16 16 16 16 16 16 16 16 15 15 15
19 19 19 19 19 18 18 18 18 18 18 18 18 18 18 18 18 18 18 18 18 18 17 17 17 17 17 16 16 16 16 16 16 16 16 16 16 16 16 15 15 15 15
19 19 19 19 18 18 18 18 18 18 17 17 17 17 17 17 17 17 17 17 17 17 17 17 17 17 17 16 16 16 16 16 16 16 16 16 16 16 15 15 15 15 15
19 19 19 18 18 18 18 17 17 17 17 17 17 17 17 17 17 17 17 17 17 17 17 17 17 16 16 16 16 16 16 16 16 16 16 16 16 15 15 15 15 15 15
19 19 19 18 18 18 18 17 17 17 17 17 17 16 17 17 17 17 17 17 17 17 17 16 16 16 16 16 16 16 16 15 15 16 16 16 16 15 15 15 15 15 15
19 19 18 18 18 18 18 17 17 17 17 17 16 16 16 16 16 16 16 16 16 16 16 16 16 16 16 16 16 16 15 15 15 15 15 15 15 15 15 15 15 15 14
19 18 18 18 18 18 17 17 17 17 17 16 16 16 16 16 16 16 16 16 16 16 16 16 16 16 16 16 16 15 15 15 15 15 15 15 15 15 15 15 15 15 14
18 18 18 18 18 18 17 17 17 16 16 16 16 16 16 16 16 16 16 16 16 16 16 16 15 15 15 15 15 15 15 15 15 15 15 15 15 15 15 15 15 14 14
18 18 18 18 18 17 17 17 17 16 16 16 16 16 16 16 16 16 16 15 15 15 15 15 15 15 15 15 15 15 15 15 15 15 15 15 15 15 15 15 15 14 14
18 18 18 17 17 17 17 17 17 16 16 16 16 16 15 15 16 16 15 15 15 15 15 15 15 15 15 15 15 14 14 14 14 15 14 15 15 14 14 14 14 14 14
17 17 17 17 17 17 17 17 16 16 16 16 16 16 15 15 15 15 15 15 15 15 15 15 15 15 15 15 14 14 14 14 14 14 14 14 14 14 14 14 14 14 14
17 17 17 17 17 17 17 16 16 16 16 15 15 15 15 15 15 15 15 15 15 15 14 14 14 14 15 14 14 14 14 14 14 14 14 14 14 14 14 14 14 14 14
17 16 16 16 16 16 16 16 16 16 15 15 15 15 15 15 15 15 15 15 15 15 14 14 14 14 14 14 14 14 14 13 13 13 14 14 14 13 13 13 13 13 13
Wind_Speed
3 3 2 3 3 3 4 3 3 3 3 3 3 3 2 2 3 6 7 10 9 8 6 6 6 5 5 5 5 5 5 5 5 6 7 7 7 7 7 6 6 6 6
4 3 2 1 2 2 3 3 3 3 2 2 2 1 1 2 3 6 8 9 9 8 7 7 6 6 5 5 5 5 5 5 5 6 6 6 6 6 7 7 7 7 6
4 2 2 1 2 2 2 2 2 2 2 2 2 2 1 1 2 4 7 8 8 8 8 8 7 6 6 5 5 5 5 5 5 5 5 4 5 5 6 6 6 6 7
3 2 1 1 2 3 2 2 2 2 2 2 2 2 2 2 2 4 5 7 8 7 8 9 8 8 7 6 5 5 5 5 6 6 6 5 5 6 6 6 7 7 7
3 1 1 1 2 1 1 1 2 1 1 1 3 3 3 3 2 3 3 4 6 7 7 9 9 8 7 6 5 5 5 5 5 5 6 6 6 7 8 8 8 8 8
2 1 2 2 1 1 1 1 1 0 1 1 2 1 2 3 3 3 3 3 5 6 7 8 8 8 8 7 6 5 5 5 5 5 5 6 7 7 9 10 10 10 9
1 1 1 1 1 2 1 1 0 1 2 1 1 1 2 3 3 3 3 2 3 4 6 7 7 7 7 7 6 5 5 5 5 5 5 6 7 8 9 10 10 10 11
2 2 1 0 1 1 1 1 1 1 2 2 2 1 1 1 2 3 3 4 3 3 4 6 7 7 7 6 6 6 6 6 6 6 6 6 7 7 8 10 11 11 11
2 1 2 1 1 1 1 1 1 2 2 2 2 1 1 2 1 1 2 2 2 1 2 3 5 7 7 6 7 7 7 6 6 6 6 6 7 9 9 10 11 11 11
2 2 2 2 1 0 1 2 1 2 2 2 2 2 2 1 1 1 1 2 3 3 3 2 3 5 7 6 7 7 7 7 6 6 6 6 7 9 9 10 11 11 11
2 1 2 2 1 1 1 1 0 1 1 1 1 1 2 2 3 2 1 2 2 3 3 3 2 3 6 7 7 6 8 7 7 7 6 6 5 6 8 9 10 11 11
2 2 2 1 1 1 1 1 1 2 1 1 2 2 1 1 2 2 3 3 2 2 3 3 3 3 5 6 6 7 9 9 8 7 7 6 5 4 5 6 7 9 9
2 2 2 1 1 1 1 1 2 2 2 2 2 2 2 2 2 1 2 2 1 1 2 2 2 3 4 5 6 7 9 11 10 8 7 6 5 5 4 5 6 7 7
2 2 2 2 2 1 2 1 2 3 2 2 3 3 2 2 2 1 1 1 1 1 1 2 2 3 3 4 5 8 7 10 10 10 9 8 7 6 5 5 4 4 5
2 2 2 2 2 2 2 1 2 2 2 2 3 2 2 2 2 2 1 1 1 2 2 1 1 1 3 4 6 6 5 8 11 11 10 9 9 8 7 6 6 5 5
1 2 2 2 2 2 2 3 2 2 2 2 2 1 1 2 2 2 2 1 1 1 2 1 1 1 1 1 5 4 4 6 9 11 11 11 11 10 9 8 7 7 6
3 3 3 3 3 2 2 2 3 3 2 2 3 2 2 2 1 3 2 2 2 1 2 2 1 0 1 0 1 2 4 5 6 10 12 12 12 11 11 10 9 8 7
4 3 3 3 3 2 2 3 4 3 3 3 3 2 2 2 1 2 2 2 2 1 1 2 2 1 1 2 2 2 3 4 4 8 12 12 12 12 12 11 10 9 8
4 4 4 3 3 2 3 3 3 3 3 3 3 2 3 2 2 2 2 2 2 2 1 2 2 1 1 2 2 3 3 2 4 6 10 12 13 12 12 11 11 10 10
4 4 4 3 3 3 2 2 2 3 3 2 2 2 2 2 2 3 3 2 3 3 3 2 2 2 1 2 2 2 2 2 3 4 4 7 11 13 14 13 12 11 11
5 4 3 3 2 2 3 2 3 3 2 2 2 1 1 1 1 1 2 2 3 2 3 2 2 2 2 1 2 2 3 3 3 2 2 4 5 6 9 12 13 13 12
3 3 3 3 3 3 1 2 2 2 1 2 2 2 2 2 2 1 2 4 3 3 2 3 2 2 2 2 2 3 2 2 3 2 2 4 3 4 5 8 12 14 14
3 3 3 3 2 0 0 0 1 2 2 2 2 2 3 1 2 2 2 4 4 4 5 3 3 4 3 2 2 3 3 4 4 3 2 4 3 3 3 7 14 16 15
3 3 3 3 2 1 1 0 2 3 3 2 1 1 0 1 2 2 2 2 2 3 5 4 3 4 3 2 2 4 5 4 4 4 2 3 3 3 3 4 11 15 15
2 2 2 2 2 1 2 1 1 2 2 2 2 1 1 0 0 2 2 3 3 3 3 3 4 5 6 6 4 3 3 3 4 4 2 2 3 3 2 2 6 12 13
2 2 2 2 3 2 2 2 2 2 2 2 2 2 1 2 1 1 2 3 4 4 4 4 4 5 6 7 7 5 4 4 4 3 2 2 2 2 3 2 2 5 8
Wind_Direction
98 116 125 154 150 155 159 157 170 152 164 177 190 185 176 149 153 141 147 162 169 177 184 187 191 191 187 191 199 198 199 195 196 203 206 204 207 206 201 198 193 191 197
102 112 120 115 135 135 129 161 165 163 172 182 201 168 172 169 149 144 155 167 174 179 185 187 190 191 190 193 192 194 195 192 194 198 204 207 205 202 197 194 195 196 197
113 121 120 136 116 122 154 168 150 162 173 173 172 166 177 189 174 167 172 171 175 183 187 188 193 195 192 193 194 192 192 191 189 184 179 182 191 197 201 200 200 204 209
129 113 120 111 143 162 167 153 167 175 174 181 175 190 164 186 192 188 185 176 177 177 182 191 194 194 193 195 191 188 191 191 192 193 193 195 201 202 201 202 208 211 213
133 138 123 108 190 139 136 162 120 164 195 190 192 186 180 185 201 207 189 181 177 167 165 178 188 187 186 190 191 190 190 190 194 202 209 212 213 211 208 208 212 214 217
137 153 127 122 137 92 83 74 77 142 216 229 248 181 194 187 189 198 215 190 181 176 171 167 177 190 192 194 194 194 196 202 209 218 223 222 222 221 219 216 215 217 219
128 96 59 128 106 97 97 101 173 236 229 192 183 222 242 211 201 200 203 199 178 168 158 161 165 165 163 181 187 194 203 208 211 219 228 233 232 228 226 220 221 222 224
174 152 119 203 122 148 163 188 204 237 247 195 188 183 237 220 248 220 185 194 191 165 168 172 173 165 159 157 173 195 206 214 220 226 234 238 233 229 229 227 227 224 224
160 134 135 159 185 167 154 224 213 238 248 235 212 207 214 212 195 198 199 173 156 182 202 169 167 159 165 167 166 187 199 208 220 226 231 234 234 232 232 231 227 224 223
172 166 158 168 218 150 154 239 179 256 238 254 223 225 228 232 209 189 227 183 183 194 212 198 152 156 162 155 154 166 188 203 216 224 231 237 241 241 240 232 227 223 221
185 173 173 184 189 177 198 255 247 269 259 270 274 248 237 241 239 208 215 215 212 197 188 178 174 163 165 164 158 170 183 196 208 220 229 235 244 248 244 233 230 223 221
185 185 186 181 201 185 211 224 248 245 272 292 292 292 276 264 255 221 221 222 214 219 183 180 181 181 172 161 178 182 183 192 202 213 223 227 236 251 255 238 232 225 222
182 198 167 152 203 199 207 203 218 246 254 268 279 283 287 280 273 269 239 247 231 229 196 188 183 174 176 160 170 175 184 188 196 206 212 215 224 237 251 250 244 232 226
188 169 156 160 195 211 216 208 228 217 222 238 253 263 281 288 294 274 269 284 270 247 213 212 173 160 151 153 166 168 178 189 196 202 207 212 217 224 228 234 242 239 235
205 158 165 175 188 201 231 229 242 250 228 229 255 266 266 286 302 307 308 292 265 265 246 213 170 150 145 153 160 172 176 193 204 208 209 212 214 217 219 223 226 229 231
192 162 177 190 203 206 218 231 239 236 227 222 227 253 268 299 305 310 300 305 296 286 280 230 221 127 119 155 162 184 204 206 211 212 212 212 214 217 220 221 223 224 225
197 196 195 201 211 214 224 232 236 243 231 232 240 225 228 262 303 310 314 312 303 295 272 279 241 153 140 104 141 216 211 211 216 220 215 214 216 218 219 220 220 223 224
209 209 203 213 221 213 220 232 243 234 232 234 239 238 238 236 228 272 292 285 284 272 247 271 263 232 221 200 207 231 227 226 220 223 215 216 218 221 221 220 220 222 223
209 212 203 208 218 221 229 230 237 234 237 242 231 231 241 245 253 269 272 290 294 290 251 250 263 242 234 231 223 239 249 242 243 229 210 218 223 221 219 220 220 222 224
211 209 209 208 209 215 236 237 237 237 232 233 230 235 245 239 256 281 278 287 295 303 286 264 253 246 233 245 231 241 252 244 258 252 213 213 215 215 216 217 219 222 225
212 204 206 201 196 207 229 229 234 230 226 232 226 214 219 201 236 272 293 313 306 300 296 291 280 276 265 250 253 258 261 255 255 256 249 225 202 207 213 218 218 221 223
206 205 202 190 205 226 243 214 224 238 220 225 236 230 215 191 186 233 267 267 263 265 277 283 291 283 294 296 292 286 282 289 279 265 262 260 212 214 207 202 205 209 214
203 199 189 183 185 165 297 257 232 243 234 221 224 241 266 265 182 221 250 246 248 245 237 250 278 288 288 298 309 302 292 279 271 264 272 272 253 241 219 201 194 200 206
194 189 186 186 166 168 159 173 284 236 247 241 226 213 213 294 311 327 286 275 257 243 237 236 254 273 277 290 286 276 274 277 271 264 234 261 265 256 241 186 198 200 205
188 187 171 167 158 165 181 161 251 232 236 233 227 222 246 244 335 336 318 307 299 288 256 238 230 247 253 259 265 289 288 289 289 286 249 249 272 270 247 220 208 203 206
178 179 179 174 169 174 187 191 213 245 239 221 195 191 207 215 221 224 247 272 280 284 290 281 264 255 253 255 243 234 257 270 284 282 275 270 280 292 281 253 195 201 214
Height
1534 1535 1536 1538 1539 1541 1542 1543 1544 1545 1547 1547 1549 1550 1551 1551 1552 1552 1552 1552 1552 1552 1552 1552 1552 1552 1552 1552 1553 1553 1553 1553 1554 1555 1555 1556 1556 1558 1559 1560 1561 1562 1563
1536 1536 1537 1539 1540 1541 1542 1543 1544 1545 1546 1548 1549 1550 1550 1551 1552 1552 1552 1552 1552 1552 1551 1551 1551 1551 1552 1552 1552 1552 1552 1552 1553 1553 1554 1554 1555 1556 1557 1558 1559 1560 1561
1538 1538 1539 1540 1541 1542 1542 1543 1544 1545 1546 1547 1548 1549 1550 1550 1551 1551 1552 1551 1551 1551 1551 1551 1551 1551 1551 1551 1551 1551 1551 1551 1552 1552 1552 1553 1554 1554 1555 1556 1557 1558 1559
1539 1540 1541 1541 1542 1542 1543 1543 1544 1545 1546 1547 1547 1548 1549 1550 1550 1551 1551 1551 1550 1550 1550 1550 1550 1550 1550 1550 1550 1550 1550 1550 1551 1551 1551 1552 1552 1552 1553 1554 1555 1555 1557
1540 1540 1541 1541 1542 1543 1543 1544 1544 1545 1545 1546 1547 1548 1548 1549 1550 1550 1550 1551 1550 1550 1550 1550 1550 1550 1550 1549 1549 1549 1549 1549 1549 1549 1549 1550 1550 1550 1550 1551 1552 1553 1554
1540 1541 1541 1542 1542 1543 1543 1543 1544 1545 1545 1546 1547 1548 1548 1548 1549 1549 1549 1550 1550 1549 1549 1549 1548 1548 1549 1548 1548 1548 1548 1548 1548 1547 1547 1547 1547 1547 1548 1548 1549 1550 1551
1540 1541 1541 1542 1542 1542 1543 1543 1543 1544 1545 1545 1546 1546 1547 1547 1547 1548 1548 1548 1548 1548 1548 1548 1547 1547 1547 1547 1547 1547 1546 1546 1546 1545 1545 1544 1544 1544 1545 1545 1546 1547 1548
1540 1541 1541 1541 1541 1542 1542 1543 1543 1543 1544 1545 1545 1545 1546 1547 1546 1546 1546 1546 1547 1547 1547 1547 1547 1546 1545 1545 1545 1545 1545 1544 1544 1543 1543 1542 1541 1541 1541 1542 1543 1544 1545
1539 1540 1540 1540 1541 1541 1541 1542 1542 1542 1543 1543 1544 1544 1544 1544 1545 1545 1545 1545 1545 1546 1545 1546 1545 1544 1544 1543 1543 1543 1543 1542 1542 1541 1540 1539 1539 1539 1538 1538 1539 1540 1542
1539 1539 1539 1540 1540 1540 1540 1540 1540 1541 1541 1542 1542 1542 1543 1543 1543 1543 1544 1544 1544 1543 1544 1544 1543 1543 1542 1542 1541 1541 1541 1540 1540 1539 1538 1537 1537 1536 1535 1534 1535 1537 1538
1538 1538 1538 1538 1538 1538 1539 1539 1539 1539 1539 1539 1540 1540 1541 1541 1542 1542 1542 1542 1542 1542 1541 1542 1541 1541 1541 1540 1539 1539 1539 1538 1537 1537 1536 1535 1534 1533 1531 1531 1531 1533 1535
1537 1537 1537 1537 1537 1537 1537 1537 1537 1538 1538 1538 1538 1538 1539 1539 1540 1540 1540 1540 1540 1540 1539 1539 1539 1539 1539 1538 1538 1537 1537 1536 1536 1535 1534 1533 1532 1531 1529 1529 1530 1531 1533
1536 1535 1535 1535 1535 1535 1535 1536 1536 1536 1536 1536 1536 1536 1537 1537 1538 1538 1538 1538 1538 1538 1538 1538 1537 1537 1537 1536 1536 1535 1535 1534 1534 1533 1532 1531 1531 1530 1529 1528 1529 1530 1531
1534 1534 1534 1534 1534 1534 1534 1534 1534 1534 1534 1534 1534 1534 1534 1535 1536 1536 1536 1536 1536 1536 1536 1535 1535 1535 1535 1534 1534 1533 1532 1532 1532 1531 1531 1530 1530 1529 1528 1528 1528 1528 1529
1533 1532 1532 1532 1532 1532 1532 1532 1531 1531 1531 1532 1532 1532 1532 1532 1533 1533 1534 1534 1535 1534 1533 1533 1533 1533 1532 1532 1531 1531 1530 1530 1530 1530 1529 1529 1528 1528 1527 1527 1527 1527 1527
1530 1530 1530 1530 1530 1530 1529 1529 1529 1529 1529 1529 1529 1530 1530 1530 1531 1531 1532 1532 1532 1532 1531 1531 1531 1531 1531 1530 1529 1529 1529 1528 1528 1528 1527 1527 1526 1526 1526 1525 1525 1525 1525
1528 1528 1528 1528 1528 1527 1527 1527 1526 1526 1526 1526 1527 1527 1527 1527 1528 1528 1529 1529 1529 1529 1529 1529 1529 1529 1528 1528 1528 1527 1526 1526 1525 1525 1525 1524 1524 1524 1523 1523 1523 1523 1523
1525 1526 1526 1526 1526 1525 1525 1524 1523 1523 1524 1524 1524 1525 1525 1525 1525 1526 1526 1527 1527 1527 1527 1526 1526 1526 1526 1525 1525 1525 1524 1523 1523 1522 1522 1522 1522 1521 1521 1521 1521 1520 1520
1523 1523 1523 1523 1523 1523 1522 1522 1521 1521 1521 1522 1522 1522 1523 1523 1523 1524 1524 1524 1524 1525 1524 1524 1523 1523 1523 1523 1523 1522 1522 1521 1521 1520 1520 1519 1519 1518 1518 1518 1518 1517 1517
1520 1520 1520 1520 1520 1520 1520 1520 1519 1519 1519 1519 1519 1520 1520 1521 1521 1521 1522 1522 1522 1522 1522 1522 1521 1521 1521 1521 1520 1520 1519 1519 1518 1518 1517 1516 1516 1516 1515 1515 1514 1514 1514
1517 1517 1518 1518 1518 1518 1518 1517 1517 1517 1517 1517 1517 1517 1518 1518 1518 1519 1519 1519 1519 1519 1520 1519 1519 1519 1518 1518 1518 1517 1517 1516 1516 1515 1514 1513 1513 1512 1512 1511 1511 1511 1510
1514 1515 1515 1515 1515 1516 1516 1515 1515 1515 1515 1515 1515 1515 1515 1516 1516 1516 1516 1516 1517 1517 1517 1517 1517 1516 1516 1515 1515 1515 1515 1514 1513 1513 1511 1510 1510 1509 1508 1507 1507 1507 1507
1512 1512 1513 1513 1513 1513 1513 1513 1513 1513 1513 1513 1513 1513 1513 1514 1513 1513 1513 1513 1513 1514 1514 1514 1514 1513 1513 1513 1512 1512 1512 1511 1511 1510 1509 1507 1507 1506 1505 1504 1504 1503 1503
1509 1509 1510 1510 1510 1510 1511 1511 1511 1511 1511 1511 1511 1511 1511 1511 1510 1511 1510 1510 1510 1510 1510 1510 1510 1510 1510 1510 1509 1509 1508 1508 1507 1506 1506 1504 1503 1503 1502 1502 1501 1500 1500
1506 1507 1507 1507 1507 1507 1508 1508 1508 1508 1509 1509 1509 1509 1509 1509 1508 1508 1508 1508 1507 1507 1507 1507 1507 1507 1506 1506 1506 1506 1505 1504 1503 1502 1502 1501 1500 1499 1499 1498 1498 1497 1497
1503 1504 1504 1505 1505 1505 1505 1506 1506 1506 1506 1506 1507 1507 1507 1507 1506 1506 1506 1505 1504 1504 1504 1504 1504 1503 1503 1503 1503 1502 1502 1501 1500 1499 1498 1498 1497 1496 1495 1495 1494 1494 1493